Time,TemperatureF,DewpointF,PressureIn,WindDirection,WindDirectionDegrees,WindSpeedMPH,WindSpeedGustMPH,Humidity,HourlyPrecipIn,Conditions,Clouds,dailyrainin,SoftwareType,DateUTC
2013-02-18 00:02:00,49.0,-99.9,30.03,NW,312,21.0,26.0,-999,-99.99,,,-99.99,,2013-02-18 08:02:00,
2013-02-18 00:11:00,49.0,-99.9,30.03,NW,315,19.0,26.0,-999,-99.99,,,-99.99,,2013-02-18 08:11:00,
2013-02-18 00:22:00,49.0,-99.9,30.03,NW,311,23.0,26.0,-999,-99.99,,,-99.99,,2013-02-18 08:22:00,
2013-02-18 00:33:00,49.0,-99.9,30.03,WNW,299,21.0,26.0,-999,-99.99,,,-99.99,,2013-02-18 08:33:00,
2013-02-18 00:42:00,49.0,-99.9,30.04,NW,304,22.0,26.0,-999,-99.99,,,-99.99,,2013-02-18 08:42:00,
2013-02-18 00:52:00,49.0,-99.9,30.04,NW,306,23.0,27.0,-999,-99.99,,,-99.99,,2013-02-18 08:52:00,
2013-02-18 01:03:00,49.0,-99.9,30.04,WNW,302,22.0,27.0,-999,-99.99,,,-99.99,,2013-02-18 09:03:00,
2013-02-18 01:11:00,49.0,-99.9,30.03,WNW,303,22.0,25.0,-999,-99.99,,,-99.99,,2013-02-18 09:11:00,
2013-02-18 01:22:00,49.0,-99.9,30.03,WNW,299,19.0,25.0,-999,-99.99,,,-99.99,,2013-02-18 09:22:00,
2013-02-18 01:32:00,48.0,-99.9,30.03,WNW,303,20.0,27.0,-999,-99.99,,,-99.99,,2013-02-18 09:32:00,
2013-02-18 01:42:00,48.0,-99.9,30.03,NW,306,20.0,24.0,-999,-99.99,,,-99.99,,2013-02-18 09:42:00,
2013-02-18 01:52:00,48.0,-99.9,30.03,WNW,298,23.0,27.0,-999,-99.99,,,-99.99,,2013-02-18 09:52:00,
2013-02-18 02:01:00,48.0,-99.9,30.03,WNW,303,22.0,29.0,-999,-99.99,,,-99.99,,2013-02-18 10:01:00,
2013-02-18 02:12:00,48.0,-99.9,30.03,WNW,300,23.0,27.0,-999,-99.99,,,-99.99,,2013-02-18 10:12:00,
2013-02-18 02:22:00,48.0,-99.9,30.03,WNW,303,17.0,28.0,-999,-99.99,,,-99.99,,2013-02-18 10:22:00,
2013-02-18 02:32:00,48.0,-99.9,30.02,NW,306,21.0,24.0,-999,-99.99,,,-99.99,,2013-02-18 10:32:00,
2013-02-18 02:43:00,48.0,-99.9,30.02,WNW,302,21.0,24.0,-999,-99.99,,,-99.99,,2013-02-18 10:43:00,
2013-02-18 02:53:00,48.0,-99.9,30.02,NW,304,20.0,24.0,-999,-99.99,,,-99.99,,2013-02-18 10:53:00,
2013-02-18 03:02:00,48.0,-99.9,30.02,WNW,301,21.0,25.0,-999,-99.99,,,-99.99,,2013-02-18 11:02:00,
2013-02-18 03:12:00,48.0,-99.9,30.01,WNW,300,21.0,26.0,-999,-99.99,,,-99.99,,2013-02-18 11:12:00,
2013-02-18 03:22:00,48.0,-99.9,30.01,WNW,301,22.0,25.0,-999,-99.99,,,-99.99,,2013-02-18 11:22:00,
2013-02-18 03:33:00,48.0,-99.9,30.01,WNW,297,21.0,24.0,-999,-99.99,,,-99.99,,2013-02-18 11:33:00,
2013-02-18 03:43:00,48.0,-99.9,30.00,WNW,298,20.0,26.0,-999,-99.99,,,-99.99,,2013-02-18 11:43:00,
2013-02-18 03:53:00,48.0,-99.9,30.00,WNW,301,20.0,23.0,-999,-99.99,,,-99.99,,2013-02-18 11:53:00,
2013-02-18 04:02:00,48.0,-99.9,30.00,WNW,302,21.0,27.0,-999,-99.99,,,-99.99,,2013-02-18 12:02:00,
2013-02-18 04:12:00,48.0,-99.9,30.00,WNW,291,19.0,24.0,-999,-99.99,,,-99.99,,2013-02-18 12:12:00,
2013-02-18 04:22:00,48.0,-99.9,30.00,WNW,298,21.0,25.0,-999,-99.99,,,-99.99,,2013-02-18 12:22:00,
2013-02-18 04:32:00,48.0,-99.9,30.01,WNW,296,22.0,27.0,-999,-99.99,,,-99.99,,2013-02-18 12:32:00,
2013-02-18 04:42:00,48.0,-99.9,30.01,WNW,296,21.0,26.0,-999,-99.99,,,-99.99,,2013-02-18 12:42:00,
2013-02-18 04:54:00,48.0,-99.9,30.01,WNW,295,21.0,29.0,-999,-99.99,,,-99.99,,2013-02-18 12:54:00,
2013-02-18 05:03:00,48.0,-99.9,30.01,WNW,300,24.0,28.0,-999,-99.99,,,-99.99,,2013-02-18 13:03:00,
2013-02-18 05:12:00,48.0,-99.9,30.01,WNW,296,23.0,30.0,-999,-99.99,,,-99.99,,2013-02-18 13:12:00,
2013-02-18 05:23:00,48.0,-99.9,30.01,WNW,298,21.0,24.0,-999,-99.99,,,-99.99,,2013-02-18 13:23:00,
2013-02-18 05:33:00,48.0,-99.9,30.01,NW,304,19.0,28.0,-999,-99.99,,,-99.99,,2013-02-18 13:33:00,
2013-02-18 05:43:00,47.0,-99.9,30.01,WNW,302,21.0,26.0,-999,-99.99,,,-99.99,,2013-02-18 13:43:00,
2013-02-18 05:53:00,47.0,-99.9,30.01,WNW,293,16.0,26.0,-999,-99.99,,,-99.99,,2013-02-18 13:53:00,
2013-02-18 06:02:00,47.0,-99.9,30.01,WNW,295,21.0,25.0,-999,-99.99,,,-99.99,,2013-02-18 14:02:00,
2013-02-18 06:12:00,48.0,-99.9,30.02,WNW,291,18.0,22.0,-999,-99.99,,,-99.99,,2013-02-18 14:12:00,
2013-02-18 06:22:00,47.0,-99.9,30.01,WNW,287,17.0,23.0,-999,-99.99,,,-99.99,,2013-02-18 14:22:00,
2013-02-18 06:34:00,47.0,-99.9,30.01,WNW,300,16.0,21.0,-999,-99.99,,,-99.99,,2013-02-18 14:34:00,
2013-02-18 06:42:00,47.0,-99.9,30.01,WNW,296,17.0,22.0,-999,-99.99,,,-99.99,,2013-02-18 14:42:00,
2013-02-18 06:54:00,47.0,-99.9,30.01,WNW,287,16.0,21.0,-999,-99.99,,,-99.99,,2013-02-18 14:54:00,
2013-02-18 07:02:00,47.0,-99.9,30.01,WNW,290,17.0,21.0,-999,-99.99,,,-99.99,,2013-02-18 15:02:00,
2013-02-18 07:12:00,47.0,-99.9,30.01,WNW,295,12.0,20.0,-999,-99.99,,,-99.99,,2013-02-18 15:12:00,
2013-02-18 07:22:00,47.0,-99.9,30.01,WNW,283,13.0,18.0,-999,-99.99,,,-99.99,,2013-02-18 15:22:00,
2013-02-18 07:32:00,47.0,-99.9,30.01,WNW,289,15.0,20.0,-999,-99.99,,,-99.99,,2013-02-18 15:32:00,
2013-02-18 07:42:00,47.0,-99.9,30.01,WNW,284,15.0,18.0,-999,-99.99,,,-99.99,,2013-02-18 15:42:00,
2013-02-18 07:53:00,47.0,-99.9,30.01,WNW,291,15.0,20.0,-999,-99.99,,,-99.99,,2013-02-18 15:53:00,
2013-02-18 08:12:00,48.0,-99.9,30.02,WNW,285,16.0,21.0,-999,-99.99,,,-99.99,,2013-02-18 16:12:00,
2013-02-18 08:22:00,48.0,-99.9,30.02,WNW,293,15.0,21.0,-999,-99.99,,,-99.99,,2013-02-18 16:22:00,
2013-02-18 08:33:00,48.0,-99.9,30.03,WNW,291,13.0,18.0,-999,-99.99,,,-99.99,,2013-02-18 16:33:00,
2013-02-18 08:43:00,48.0,-99.9,30.03,WNW,290,15.0,18.0,-999,-99.99,,,-99.99,,2013-02-18 16:43:00,
2013-02-18 08:53:00,48.0,-99.9,30.04,WNW,299,18.0,22.0,-999,-99.99,,,-99.99,,2013-02-18 16:53:00,
2013-02-18 09:04:00,48.0,-99.9,30.04,WNW,286,16.0,21.0,-999,-99.99,,,-99.99,,2013-02-18 17:04:00,
2013-02-18 09:13:00,48.0,-99.9,30.04,WNW,292,18.0,23.0,-999,-99.99,,,-99.99,,2013-02-18 17:13:00,
2013-02-18 09:22:00,48.0,-99.9,30.04,WNW,303,16.0,20.0,-999,-99.99,,,-99.99,,2013-02-18 17:22:00,
2013-02-18 09:33:00,48.0,-99.9,30.04,NW,317,13.0,20.0,-999,-99.99,,,-99.99,,2013-02-18 17:33:00,
2013-02-18 09:43:00,48.0,-99.9,30.05,WNW,301,17.0,21.0,-999,-99.99,,,-99.99,,2013-02-18 17:43:00,
2013-02-18 09:53:00,48.0,-99.9,30.05,NW,305,17.0,21.0,-999,-99.99,,,-99.99,,2013-02-18 17:53:00,
2013-02-18 10:03:00,48.0,-99.9,30.05,WNW,301,17.0,21.0,-999,-99.99,,,-99.99,,2013-02-18 18:03:00,
2013-02-18 10:13:00,48.0,-99.9,30.05,NW,313,17.0,22.0,-999,-99.99,,,-99.99,,2013-02-18 18:13:00,
2013-02-18 10:23:00,48.0,-99.9,30.05,NW,309,17.0,21.0,-999,-99.99,,,-99.99,,2013-02-18 18:23:00,
2013-02-18 10:33:00,48.0,-99.9,30.05,NW,308,18.0,22.0,-999,-99.99,,,-99.99,,2013-02-18 18:33:00,
2013-02-18 10:43:00,48.0,-99.9,30.06,WNW,303,17.0,20.0,-999,-99.99,,,-99.99,,2013-02-18 18:43:00,
2013-02-18 10:53:00,48.0,-99.9,30.06,WNW,299,18.0,23.0,-999,-99.99,,,-99.99,,2013-02-18 18:53:00,
2013-02-18 11:03:00,48.0,-99.9,30.05,WNW,295,15.0,21.0,-999,-99.99,,,-99.99,,2013-02-18 19:03:00,
2013-02-18 11:13:00,48.0,-99.9,30.06,WNW,299,17.0,23.0,-999,-99.99,,,-99.99,,2013-02-18 19:13:00,
2013-02-18 11:23:00,48.0,-99.9,30.06,WNW,300,19.0,22.0,-999,-99.99,,,-99.99,,2013-02-18 19:23:00,
2013-02-18 11:34:00,49.0,-99.9,30.06,WNW,293,17.0,27.0,-999,-99.99,,,-99.99,,2013-02-18 19:34:00,
2013-02-18 11:43:00,49.0,-99.9,30.06,WNW,300,17.0,25.0,-999,-99.99,,,-99.99,,2013-02-18 19:43:00,
2013-02-18 11:53:00,49.0,-99.9,30.06,WNW,300,19.0,24.0,-999,-99.99,,,-99.99,,2013-02-18 19:53:00,
2013-02-18 12:03:00,49.0,-99.9,30.05,NW,307,21.0,26.0,-999,-99.99,,,-99.99,,2013-02-18 20:03:00,
2013-02-18 12:13:00,49.0,-99.9,30.05,WNW,298,19.0,24.0,-999,-99.99,,,-99.99,,2013-02-18 20:13:00,
2013-02-18 12:23:00,49.0,-99.9,30.04,NW,304,19.0,25.0,-999,-99.99,,,-99.99,,2013-02-18 20:23:00,
2013-02-18 12:33:00,49.0,-99.9,30.04,NW,304,20.0,23.0,-999,-99.99,,,-99.99,,2013-02-18 20:33:00,
2013-02-18 12:43:00,49.0,-99.9,30.03,NW,304,20.0,25.0,-999,-99.99,,,-99.99,,2013-02-18 20:43:00,
2013-02-18 12:53:00,49.0,-99.9,30.03,WNW,300,18.0,23.0,-999,-99.99,,,-99.99,,2013-02-18 20:53:00,
2013-02-18 13:03:00,49.0,-99.9,30.02,WNW,288,16.0,24.0,-999,-99.99,,,-99.99,,2013-02-18 21:03:00,
2013-02-18 13:12:00,49.0,-99.9,30.02,WNW,289,17.0,22.0,-999,-99.99,,,-99.99,,2013-02-18 21:12:00,
2013-02-18 13:22:00,49.0,-99.9,30.01,WNW,292,15.0,21.0,-999,-99.99,,,-99.99,,2013-02-18 21:22:00,
2013-02-18 13:33:00,49.0,-99.9,30.01,WNW,295,18.0,26.0,-999,-99.99,,,-99.99,,2013-02-18 21:33:00,
2013-02-18 13:43:00,49.0,-99.9,30.01,WNW,293,19.0,25.0,-999,-99.99,,,-99.99,,2013-02-18 21:43:00,
2013-02-18 13:53:00,49.0,-99.9,30.01,WNW,293,18.0,23.0,-999,-99.99,,,-99.99,,2013-02-18 21:53:00,
2013-02-18 14:03:00,49.0,-99.9,30.00,WNW,301,20.0,24.0,-999,-99.99,,,-99.99,,2013-02-18 22:03:00,
2013-02-18 14:13:00,49.0,-99.9,30.00,WNW,290,19.0,25.0,-999,-99.99,,,-99.99,,2013-02-18 22:13:00,
2013-02-18 14:23:00,49.0,-99.9,30.00,WNW,285,16.0,22.0,-999,-99.99,,,-99.99,,2013-02-18 22:23:00,
2013-02-18 14:33:00,49.0,-99.9,30.00,WNW,284,14.0,24.0,-999,-99.99,,,-99.99,,2013-02-18 22:33:00,
2013-02-18 14:44:00,49.0,-99.9,30.00,WNW,282,19.0,23.0,-999,-99.99,,,-99.99,,2013-02-18 22:44:00,
2013-02-18 14:54:00,49.0,-99.9,30.00,WNW,289,18.0,23.0,-999,-99.99,,,-99.99,,2013-02-18 22:54:00,
2013-02-18 15:03:00,49.0,-99.9,30.00,WNW,283,21.0,25.0,-999,-99.99,,,-99.99,,2013-02-18 23:03:00,
2013-02-18 15:12:00,49.0,-99.9,30.00,WNW,289,18.0,23.0,-999,-99.99,,,-99.99,,2013-02-18 23:12:00,
2013-02-18 15:23:00,49.0,-99.9,30.00,WNW,287,20.0,24.0,-999,-99.99,,,-99.99,,2013-02-18 23:23:00,
2013-02-18 15:34:00,49.0,-99.9,30.00,West,276,17.0,22.0,-999,-99.99,,,-99.99,,2013-02-18 23:34:00,
2013-02-18 15:43:00,49.0,-99.9,30.00,West,280,16.0,23.0,-999,-99.99,,,-99.99,,2013-02-18 23:43:00,
2013-02-18 15:54:00,49.0,-99.9,30.00,WNW,286,18.0,24.0,-999,-99.99,,,-99.99,,2013-02-18 23:54:00,
2013-02-18 16:03:00,49.0,-99.9,30.00,WNW,294,19.0,23.0,-999,-99.99,,,-99.99,,2013-02-19 00:03:00,
2013-02-18 16:13:00,49.0,-99.9,30.00,WNW,295,18.0,26.0,-999,-99.99,,,-99.99,,2013-02-19 00:13:00,
2013-02-18 16:23:00,49.0,-99.9,30.00,WNW,284,20.0,26.0,-999,-99.99,,,-99.99,,2013-02-19 00:23:00,
2013-02-18 16:36:00,49.0,-99.9,30.00,WNW,289,19.0,24.0,-999,-99.99,,,-99.99,,2013-02-19 00:36:00,
2013-02-18 16:44:00,49.0,-99.9,30.00,WNW,284,22.0,27.0,-999,-99.99,,,-99.99,,2013-02-19 00:44:00,
2013-02-18 16:55:00,49.0,-99.9,30.00,WNW,285,19.0,26.0,-999,-99.99,,,-99.99,,2013-02-19 00:55:00,
2013-02-18 17:03:00,49.0,-99.9,30.00,WNW,289,19.0,23.0,-999,-99.99,,,-99.99,,2013-02-19 01:03:00,
2013-02-18 17:15:00,49.0,-99.9,29.99,WNW,292,20.0,23.0,-999,-99.99,,,-99.99,,2013-02-19 01:15:00,
2013-02-18 17:25:00,49.0,-99.9,29.99,WNW,289,16.0,25.0,-999,-99.99,,,-99.99,,2013-02-19 01:25:00,
2013-02-18 17:35:00,49.0,-99.9,29.99,WNW,287,20.0,25.0,-999,-99.99,,,-99.99,,2013-02-19 01:35:00,
2013-02-18 17:45:00,49.0,-99.9,29.99,WNW,285,18.0,26.0,-999,-99.99,,,-99.99,,2013-02-19 01:45:00,
2013-02-18 17:57:00,49.0,-99.9,29.99,WNW,285,23.0,26.0,-999,-99.99,,,-99.99,,2013-02-19 01:57:00,
2013-02-18 18:04:00,49.0,-99.9,29.99,WNW,292,20.0,23.0,-999,-99.99,,,-99.99,,2013-02-19 02:04:00,
2013-02-18 18:14:00,49.0,-99.9,29.99,WNW,287,19.0,23.0,-999,-99.99,,,-99.99,,2013-02-19 02:14:00,
2013-02-18 18:23:00,49.0,-99.9,29.99,WNW,288,18.0,26.0,-999,-99.99,,,-99.99,,2013-02-19 02:23:00,
2013-02-18 18:35:00,49.0,-99.9,29.98,WNW,288,20.0,26.0,-999,-99.99,,,-99.99,,2013-02-19 02:35:00,
2013-02-18 18:44:00,49.0,-99.9,29.99,WNW,294,21.0,24.0,-999,-99.99,,,-99.99,,2013-02-19 02:44:00,
2013-02-18 18:56:00,49.0,-99.9,29.98,WNW,291,21.0,25.0,-999,-99.99,,,-99.99,,2013-02-19 02:56:00,
2013-02-18 19:08:00,49.0,-99.9,29.98,WNW,290,19.0,23.0,-999,-99.99,,,-99.99,,2013-02-19 03:08:00,
2013-02-18 19:15:00,49.0,-99.9,29.98,WNW,291,20.0,25.0,-999,-99.99,,,-99.99,,2013-02-19 03:15:00,
2013-02-18 19:25:00,49.0,-99.9,29.99,WNW,292,17.0,24.0,-999,-99.99,,,-99.99,,2013-02-19 03:25:00,
2013-02-18 19:35:00,48.0,-99.9,29.99,WNW,289,16.0,24.0,-999,-99.99,,,-99.99,,2013-02-19 03:35:00,
2013-02-18 19:45:00,48.0,-99.9,29.99,WNW,288,20.0,24.0,-999,-99.99,,,-99.99,,2013-02-19 03:45:00,
2013-02-18 19:55:00,48.0,-99.9,29.99,WNW,284,18.0,23.0,-999,-99.99,,,-99.99,,2013-02-19 03:55:00,
2013-02-18 20:03:00,48.0,-99.9,29.99,WNW,284,17.0,23.0,-999,-99.99,,,-99.99,,2013-02-19 04:03:00,
2013-02-18 20:15:00,48.0,-99.9,29.99,WNW,289,16.0,24.0,-999,-99.99,,,-99.99,,2013-02-19 04:15:00,
2013-02-18 20:24:00,48.0,-99.9,29.99,WNW,290,17.0,23.0,-999,-99.99,,,-99.99,,2013-02-19 04:24:00,
2013-02-18 20:34:00,48.0,-99.9,29.99,WNW,297,19.0,23.0,-999,-99.99,,,-99.99,,2013-02-19 04:34:00,
2013-02-18 20:45:00,49.0,-99.9,29.99,WNW,295,17.0,21.0,-999,-99.99,,,-99.99,,2013-02-19 04:45:00,
2013-02-18 20:56:00,49.0,-99.9,29.99,WNW,289,19.0,23.0,-999,-99.99,,,-99.99,,2013-02-19 04:56:00,
2013-02-18 21:02:00,48.0,-99.9,29.99,WNW,298,17.0,24.0,-999,-99.99,,,-99.99,,2013-02-19 05:02:00,
2013-02-18 21:13:00,49.0,-99.9,29.99,WNW,295,17.0,26.0,-999,-99.99,,,-99.99,,2013-02-19 05:13:00,
2013-02-18 21:23:00,49.0,-99.9,30.00,WNW,286,17.0,22.0,-999,-99.99,,,-99.99,,2013-02-19 05:23:00,
2013-02-18 21:33:00,48.0,-99.9,30.00,WNW,295,17.0,24.0,-999,-99.99,,,-99.99,,2013-02-19 05:33:00,
2013-02-18 21:43:00,48.0,-99.9,30.00,WNW,287,15.0,21.0,-999,-99.99,,,-99.99,,2013-02-19 05:43:00,
2013-02-18 21:52:00,48.0,-99.9,30.00,WNW,288,18.0,21.0,-999,-99.99,,,-99.99,,2013-02-19 05:52:00,
2013-02-18 22:03:00,48.0,-99.9,30.00,WNW,285,12.0,17.0,-999,-99.99,,,-99.99,,2013-02-19 06:03:00,
2013-02-18 22:12:00,49.0,-99.9,30.00,WNW,290,15.0,18.0,-999,-99.99,,,-99.99,,2013-02-19 06:12:00,
2013-02-18 22:22:00,49.0,-99.9,30.00,WNW,297,15.0,19.0,-999,-99.99,,,-99.99,,2013-02-19 06:22:00,
2013-02-18 22:33:00,48.0,-99.9,30.00,WNW,287,13.0,17.0,-999,-99.99,,,-99.99,,2013-02-19 06:33:00,
2013-02-18 22:42:00,49.0,-99.9,30.00,WNW,283,15.0,21.0,-999,-99.99,,,-99.99,,2013-02-19 06:42:00,
2013-02-18 22:53:00,48.0,-99.9,29.99,WNW,290,15.0,20.0,-999,-99.99,,,-99.99,,2013-02-19 06:53:00,
2013-02-18 23:02:00,48.0,-99.9,29.99,WNW,286,14.0,17.0,-999,-99.99,,,-99.99,,2013-02-19 07:02:00,
2013-02-18 23:12:00,48.0,-99.9,29.99,WNW,288,14.0,17.0,-999,-99.99,,,-99.99,,2013-02-19 07:12:00,
2013-02-18 23:22:00,48.0,-99.9,29.99,WNW,293,16.0,19.0,-999,-99.99,,,-99.99,,2013-02-19 07:22:00,
2013-02-18 23:32:00,48.0,-99.9,29.99,WNW,288,13.0,17.0,-999,-99.99,,,-99.99,,2013-02-19 07:32:00,
2013-02-18 23:42:00,48.0,-99.9,29.99,WNW,284,15.0,19.0,-999,-99.99,,,-99.99,,2013-02-19 07:42:00,
2013-02-18 23:52:00,48.0,-99.9,29.99,WNW,285,15.0,21.0,-999,-99.99,,,-99.99,,2013-02-19 07:52:00,